owner,sensor,date,latitude,longitude,vertical_datum,sea_water_practical_salinity,qcFlag 
DISL,ioos:station:DISL:DISL:1,2008-07-01T00:00:00Z,30.2513,-88.0778,5.375,23.33,1111122 
DISL,ioos:station:DISL:DISL:1,2008-07-01T00:30:00Z,30.2513,-88.0778,5.277,22.87,1111122 
DISL,ioos:station:DISL:DISL:1,2008-07-01T01:00:00Z,30.2513,-88.0778,5.222,22.75,1111122 
DISL,ioos:station:DISL:DISL:1,2008-07-01T01:30:00Z,30.2513,-88.0778,5.313,22.85,1111122 
DISL,ioos:station:DISL:DISL:1,2008-07-01T02:00:00Z,30.2513,-88.0778,5.393,23.0,1111122 
DISL,ioos:station:DISL:DISL:1,2008-07-01T02:30:00Z,30.2513,-88.0778,5.427,22.75,1111122 
DISL,ioos:station:DISL:DISL:1,2008-07-01T03:00:00Z,30.2513,-88.0778,5.483,22.67,1111122 
DISL,ioos:station:DISL:DISL:1,2008-07-01T03:30:00Z,30.2513,-88.0778,5.443,22.81,1111122 
DISL,ioos:station:DISL:DISL:1,2008-07-01T04:00:00Z,30.2513,-88.0778,5.476,22.7,1111122 
DISL,ioos:station:DISL:DISL:1,2008-07-01T04:30:00Z,30.2513,-88.0778,5.511,22.71,1111122 
DISL,ioos:station:DISL:DISL:1,2008-07-01T05:00:00Z,30.2513,-88.0778,5.568,22.76,1111122 
DISL,ioos:station:DISL:DISL:1,2008-07-01T05:30:00Z,30.2513,-88.0778,5.712,22.81,1111122 
DISL,ioos:station:DISL:DISL:1,2008-07-01T06:00:00Z,30.2513,-88.0778,5.734,22.81,1111122 
DISL,ioos:station:DISL:DISL:1,2008-07-01T06:30:00Z,30.2513,-88.0778,5.891,22.89,1111122 
DISL,ioos:station:DISL:DISL:1,2008-07-01T07:00:00Z,30.2513,-88.0778,6.019,22.86,1111122 
DISL,ioos:station:DISL:DISL:1,2008-07-01T07:30:00Z,30.2513,-88.0778,6.136,22.78,1111122 
DISL,ioos:station:DISL:DISL:1,2008-07-01T08:00:00Z,30.2513,-88.0778,6.298,22.72,1111122 
DISL,ioos:station:DISL:DISL:1,2008-07-01T08:30:00Z,30.2513,-88.0778,6.342,22.74,1111122 
DISL,ioos:station:DISL:DISL:1,2008-07-01T09:00:00Z,30.2513,-88.0778,6.596,22.85,1111122 
DISL,ioos:station:DISL:DISL:1,2008-07-01T09:30:00Z,30.2513,-88.0778,6.631,22.9,1111122 
DISL,ioos:station:DISL:DISL:1,2008-07-01T10:00:00Z,30.2513,-88.0778,6.796,22.96,1111122 
DISL,ioos:station:DISL:DISL:1,2008-07-01T10:30:00Z,30.2513,-88.0778,6.916,23.0,1111122 
DISL,ioos:station:DISL:DISL:1,2008-07-01T11:00:00Z,30.2513,-88.0778,7.07,22.93,1111122 
DISL,ioos:station:DISL:DISL:1,2008-07-01T11:30:00Z,30.2513,-88.0778,7.11,22.85,1111122 
DISL,ioos:station:DISL:DISL:1,2008-07-01T12:00:00Z,30.2513,-88.0778,7.23,22.77,1111122 
DISL,ioos:station:DISL:DISL:1,2008-07-01T12:30:00Z,30.2513,-88.0778,7.32,23.87,1111122 
DISL,ioos:station:DISL:DISL:1,2008-07-01T13:00:00Z,30.2513,-88.0778,7.39,23.9,1111122 
DISL,ioos:station:DISL:DISL:1,2008-07-01T13:30:00Z,30.2513,-88.0778,7.45,24.39,1111122 
DISL,ioos:station:DISL:DISL:1,2008-07-01T14:00:00Z,30.2513,-88.0778,7.45,25.44,1111122 
DISL,ioos:station:DISL:DISL:1,2008-07-01T14:30:00Z,30.2513,-88.0778,7.47,26.16,1111122 
DISL,ioos:station:DISL:DISL:1,2008-07-01T15:00:00Z,30.2513,-88.0778,7.47,23.59,1111122 
DISL,ioos:station:DISL:DISL:1,2008-07-01T15:30:00Z,30.2513,-88.0778,7.4,22.69,1111122 
DISL,ioos:station:DISL:DISL:1,2008-07-01T16:00:00Z,30.2513,-88.0778,7.33,22.65,1111122 
DISL,ioos:station:DISL:DISL:1,2008-07-01T16:30:00Z,30.2513,-88.0778,7.19,22.7,1111122 
DISL,ioos:station:DISL:DISL:1,2008-07-01T17:00:00Z,30.2513,-88.0778,7.09,22.66,1111122 
DISL,ioos:station:DISL:DISL:1,2008-07-01T17:30:00Z,30.2513,-88.0778,6.982,22.62,1111122 
DISL,ioos:station:DISL:DISL:1,2008-07-01T18:00:00Z,30.2513,-88.0778,6.828,22.51,1111122 
DISL,ioos:station:DISL:DISL:1,2008-07-01T18:30:00Z,30.2513,-88.0778,6.681,21.45,1111122 
DISL,ioos:station:DISL:DISL:1,2008-07-01T19:00:00Z,30.2513,-88.0778,6.527,20.51,1111122 
DISL,ioos:station:DISL:DISL:1,2008-07-01T19:30:00Z,30.2513,-88.0778,6.43,21.26,1111122 
DISL,ioos:station:DISL:DISL:1,2008-07-01T20:00:00Z,30.2513,-88.0778,6.301,21.61,1111122 
DISL,ioos:station:DISL:DISL:1,2008-07-01T20:30:00Z,30.2513,-88.0778,6.182,21.97,1111122 
DISL,ioos:station:DISL:DISL:1,2008-07-01T21:00:00Z,30.2513,-88.0778,6.09,22.32,1111122 
DISL,ioos:station:DISL:DISL:1,2008-07-01T21:30:00Z,30.2513,-88.0778,5.969,22.79,1111122 
DISL,ioos:station:DISL:DISL:1,2008-07-01T22:00:00Z,30.2513,-88.0778,5.819,22.99,1111122 
DISL,ioos:station:DISL:DISL:1,2008-07-01T22:30:00Z,30.2513,-88.0778,5.732,22.89,1111122 
DISL,ioos:station:DISL:DISL:1,2008-07-01T23:00:00Z,30.2513,-88.0778,5.611,22.9,1111122 
DISL,ioos:station:DISL:DISL:1,2008-07-01T23:30:00Z,30.2513,-88.0778,5.542,22.87,1111122 
DISL,ioos:station:DISL:DISL:1,2008-07-02T00:00:00Z,30.2513,-88.0778,5.503,22.19,1111122 
DISL,ioos:station:DISL:DISL:1,2008-07-02T00:30:00Z,30.2513,-88.0778,5.399,21.81,1111122 
DISL,ioos:station:DISL:DISL:1,2008-07-02T01:00:00Z,30.2513,-88.0778,5.329,21.46,1111122 
DISL,ioos:station:DISL:DISL:1,2008-07-02T01:30:00Z,30.2513,-88.0778,5.303,20.85,1111122 
DISL,ioos:station:DISL:DISL:1,2008-07-02T02:00:00Z,30.2513,-88.0778,5.324,20.67,1111122 
DISL,ioos:station:DISL:DISL:1,2008-07-02T02:30:00Z,30.2513,-88.0778,5.333,20.29,1111122 
DISL,ioos:station:DISL:DISL:1,2008-07-02T03:00:00Z,30.2513,-88.0778,5.391,19.08,1111122 
DISL,ioos:station:DISL:DISL:1,2008-07-02T03:30:00Z,30.2513,-88.0778,5.463,19.52,1111122 
DISL,ioos:station:DISL:DISL:1,2008-07-02T04:00:00Z,30.2513,-88.0778,5.491,19.93,1111122 
DISL,ioos:station:DISL:DISL:1,2008-07-02T04:30:00Z,30.2513,-88.0778,5.533,20.65,1111122 
DISL,ioos:station:DISL:DISL:1,2008-07-02T05:00:00Z,30.2513,-88.0778,5.596,20.74,1111122 
DISL,ioos:station:DISL:DISL:1,2008-07-02T05:30:00Z,30.2513,-88.0778,5.672,20.35,1111122 
DISL,ioos:station:DISL:DISL:1,2008-07-02T06:00:00Z,30.2513,-88.0778,5.743,20.06,1111122 
DISL,ioos:station:DISL:DISL:1,2008-07-02T06:30:00Z,30.2513,-88.0778,5.84,20.29,1111122 
DISL,ioos:station:DISL:DISL:1,2008-07-02T07:00:00Z,30.2513,-88.0778,5.938,20.73,1111122 
DISL,ioos:station:DISL:DISL:1,2008-07-02T07:30:00Z,30.2513,-88.0778,6.054,21.54,1111122 
DISL,ioos:station:DISL:DISL:1,2008-07-02T08:00:00Z,30.2513,-88.0778,6.15,21.93,1111122 
DISL,ioos:station:DISL:DISL:1,2008-07-02T08:30:00Z,30.2513,-88.0778,6.269,22.25,1111122 
DISL,ioos:station:DISL:DISL:1,2008-07-02T09:00:00Z,30.2513,-88.0778,6.41,22.33,1111122 
DISL,ioos:station:DISL:DISL:1,2008-07-02T09:30:00Z,30.2513,-88.0778,6.534,22.05,1111122 
DISL,ioos:station:DISL:DISL:1,2008-07-02T10:00:00Z,30.2513,-88.0778,6.671,22.06,1111122 
DISL,ioos:station:DISL:DISL:1,2008-07-02T10:30:00Z,30.2513,-88.0778,6.82,22.12,1111122 
DISL,ioos:station:DISL:DISL:1,2008-07-02T11:00:00Z,30.2513,-88.0778,6.932,22.2,1111122 
DISL,ioos:station:DISL:DISL:1,2008-07-02T11:30:00Z,30.2513,-88.0778,7.09,22.25,1111122 
DISL,ioos:station:DISL:DISL:1,2008-07-02T12:00:00Z,30.2513,-88.0778,7.2,23.31,1111122 
DISL,ioos:station:DISL:DISL:1,2008-07-02T12:30:00Z,30.2513,-88.0778,7.27,24.24,1111122 
DISL,ioos:station:DISL:DISL:1,2008-07-02T13:00:00Z,30.2513,-88.0778,7.4,24.19,1111122 
DISL,ioos:station:DISL:DISL:1,2008-07-02T13:30:00Z,30.2513,-88.0778,7.44,23.26,1111122 
DISL,ioos:station:DISL:DISL:1,2008-07-02T14:00:00Z,30.2513,-88.0778,7.55,23.78,1111122 
DISL,ioos:station:DISL:DISL:1,2008-07-02T14:30:00Z,30.2513,-88.0778,7.58,23.5,1111122 
DISL,ioos:station:DISL:DISL:1,2008-07-02T15:00:00Z,30.2513,-88.0778,7.59,23.0,1111122 
DISL,ioos:station:DISL:DISL:1,2008-07-02T15:30:00Z,30.2513,-88.0778,7.58,22.24,1111122 
DISL,ioos:station:DISL:DISL:1,2008-07-02T16:00:00Z,30.2513,-88.0778,7.52,22.04,1111122 
DISL,ioos:station:DISL:DISL:1,2008-07-02T16:30:00Z,30.2513,-88.0778,7.45,22.07,1111122 
DISL,ioos:station:DISL:DISL:1,2008-07-02T17:00:00Z,30.2513,-88.0778,7.42,21.98,1111122 
DISL,ioos:station:DISL:DISL:1,2008-07-02T17:30:00Z,30.2513,-88.0778,7.27,19.75,1111122 
DISL,ioos:station:DISL:DISL:1,2008-07-02T18:00:00Z,30.2513,-88.0778,7.15,21.21,1111122 
DISL,ioos:station:DISL:DISL:1,2008-07-02T18:30:00Z,30.2513,-88.0778,7.01,19.21,1111122 
DISL,ioos:station:DISL:DISL:1,2008-07-02T19:00:00Z,30.2513,-88.0778,6.811,19.81,1111122 
DISL,ioos:station:DISL:DISL:1,2008-07-02T19:30:00Z,30.2513,-88.0778,6.671,20.89,1111122 
DISL,ioos:station:DISL:DISL:1,2008-07-02T20:00:00Z,30.2513,-88.0778,6.556,21.62,1111122 
DISL,ioos:station:DISL:DISL:1,2008-07-02T20:30:00Z,30.2513,-88.0778,6.453,22.45,1111122 
DISL,ioos:station:DISL:DISL:1,2008-07-02T21:00:00Z,30.2513,-88.0778,6.323,23.49,1111122 
DISL,ioos:station:DISL:DISL:1,2008-07-02T21:30:00Z,30.2513,-88.0778,6.202,23.37,1111122 
DISL,ioos:station:DISL:DISL:1,2008-07-02T22:00:00Z,30.2513,-88.0778,6.093,23.84,1111122 
DISL,ioos:station:DISL:DISL:1,2008-07-02T22:30:00Z,30.2513,-88.0778,5.952,24.12,1111122 
DISL,ioos:station:DISL:DISL:1,2008-07-02T23:00:00Z,30.2513,-88.0778,5.867,24.14,1111122 
DISL,ioos:station:DISL:DISL:1,2008-07-02T23:30:00Z,30.2513,-88.0778,5.753,24.03,1111122 
DISL,ioos:station:DISL:DISL:1,2008-07-03T00:00:00Z,30.2513,-88.0778,5.683,23.99,1111122 
DISL,ioos:station:DISL:DISL:1,2008-07-03T00:30:00Z,30.2513,-88.0778,5.589,24.06,1111122 
DISL,ioos:station:DISL:DISL:1,2008-07-03T01:00:00Z,30.2513,-88.0778,5.495,23.94,1111122 
DISL,ioos:station:DISL:DISL:1,2008-07-03T01:30:00Z,30.2513,-88.0778,5.426,23.87,1111122 
DISL,ioos:station:DISL:DISL:1,2008-07-03T02:00:00Z,30.2513,-88.0778,5.34,23.81,1111122 
DISL,ioos:station:DISL:DISL:1,2008-07-03T02:30:00Z,30.2513,-88.0778,5.35,23.77,1111122 
DISL,ioos:station:DISL:DISL:1,2008-07-03T03:00:00Z,30.2513,-88.0778,5.268,23.3,1111122 
DISL,ioos:station:DISL:DISL:1,2008-07-03T03:30:00Z,30.2513,-88.0778,5.345,22.98,1111122 
DISL,ioos:station:DISL:DISL:1,2008-07-03T04:00:00Z,30.2513,-88.0778,5.368,21.35,1111122 
DISL,ioos:station:DISL:DISL:1,2008-07-03T04:30:00Z,30.2513,-88.0778,5.442,22.39,1111122 
DISL,ioos:station:DISL:DISL:1,2008-07-03T05:00:00Z,30.2513,-88.0778,5.431,22.69,1111122 
DISL,ioos:station:DISL:DISL:1,2008-07-03T05:30:00Z,30.2513,-88.0778,5.5,23.1,1111122 
DISL,ioos:station:DISL:DISL:1,2008-07-03T06:00:00Z,30.2513,-88.0778,5.541,23.32,1111122 
DISL,ioos:station:DISL:DISL:1,2008-07-03T06:30:00Z,30.2513,-88.0778,5.605,23.04,1111122 
DISL,ioos:station:DISL:DISL:1,2008-07-03T07:00:00Z,30.2513,-88.0778,5.651,22.47,1111122 
DISL,ioos:station:DISL:DISL:1,2008-07-03T07:30:00Z,30.2513,-88.0778,5.747,22.73,1111122 
DISL,ioos:station:DISL:DISL:1,2008-07-03T08:00:00Z,30.2513,-88.0778,5.91,23.32,1111122 
DISL,ioos:station:DISL:DISL:1,2008-07-03T08:30:00Z,30.2513,-88.0778,5.996,23.62,1111122 
DISL,ioos:station:DISL:DISL:1,2008-07-03T09:00:00Z,30.2513,-88.0778,6.163,23.88,1111122 
DISL,ioos:station:DISL:DISL:1,2008-07-03T09:30:00Z,30.2513,-88.0778,6.326,24.18,1111122 
DISL,ioos:station:DISL:DISL:1,2008-07-03T10:00:00Z,30.2513,-88.0778,6.444,23.98,1111122 
DISL,ioos:station:DISL:DISL:1,2008-07-03T10:30:00Z,30.2513,-88.0778,6.608,23.48,1111122 
DISL,ioos:station:DISL:DISL:1,2008-07-03T11:00:00Z,30.2513,-88.0778,6.73,22.84,1111122 
DISL,ioos:station:DISL:DISL:1,2008-07-03T11:30:00Z,30.2513,-88.0778,6.878,22.72,1111122 
DISL,ioos:station:DISL:DISL:1,2008-07-03T12:00:00Z,30.2513,-88.0778,7.05,22.53,1111122 
DISL,ioos:station:DISL:DISL:1,2008-07-03T12:30:00Z,30.2513,-88.0778,7.09,22.51,1111122 
DISL,ioos:station:DISL:DISL:1,2008-07-03T13:00:00Z,30.2513,-88.0778,7.23,22.44,1111122 
DISL,ioos:station:DISL:DISL:1,2008-07-03T13:30:00Z,30.2513,-88.0778,7.36,22.51,1111122 
DISL,ioos:station:DISL:DISL:1,2008-07-03T14:00:00Z,30.2513,-88.0778,7.44,22.7,1111122 
DISL,ioos:station:DISL:DISL:1,2008-07-03T14:30:00Z,30.2513,-88.0778,7.52,22.89,1111122 
DISL,ioos:station:DISL:DISL:1,2008-07-03T15:00:00Z,30.2513,-88.0778,7.64,22.87,1111122 
DISL,ioos:station:DISL:DISL:1,2008-07-03T15:30:00Z,30.2513,-88.0778,7.6,22.75,1111122 
DISL,ioos:station:DISL:DISL:1,2008-07-03T16:00:00Z,30.2513,-88.0778,7.54,22.7,1111122 
DISL,ioos:station:DISL:DISL:1,2008-07-03T16:30:00Z,30.2513,-88.0778,7.61,22.62,1111122 
DISL,ioos:station:DISL:DISL:1,2008-07-03T17:00:00Z,30.2513,-88.0778,7.62,22.56,1111122 
DISL,ioos:station:DISL:DISL:1,2008-07-03T17:30:00Z,30.2513,-88.0778,7.5,22.54,1111122 
DISL,ioos:station:DISL:DISL:1,2008-07-03T18:00:00Z,30.2513,-88.0778,7.38,22.5,1111122 
DISL,ioos:station:DISL:DISL:1,2008-07-03T18:30:00Z,30.2513,-88.0778,7.27,22.46,1111122 
DISL,ioos:station:DISL:DISL:1,2008-07-03T19:00:00Z,30.2513,-88.0778,7.18,22.46,1111122 
DISL,ioos:station:DISL:DISL:1,2008-07-03T19:30:00Z,30.2513,-88.0778,7.1,22.46,1111122 
DISL,ioos:station:DISL:DISL:1,2008-07-03T20:00:00Z,30.2513,-88.0778,6.868,22.47,1111122 
DISL,ioos:station:DISL:DISL:1,2008-07-03T20:30:00Z,30.2513,-88.0778,6.773,22.41,1111122 
DISL,ioos:station:DISL:DISL:1,2008-07-03T21:00:00Z,30.2513,-88.0778,6.621,22.63,1111122 
DISL,ioos:station:DISL:DISL:1,2008-07-03T21:30:00Z,30.2513,-88.0778,6.433,25.31,1111122 
DISL,ioos:station:DISL:DISL:1,2008-07-03T22:00:00Z,30.2513,-88.0778,6.332,26.21,1111122 
DISL,ioos:station:DISL:DISL:1,2008-07-03T22:30:00Z,30.2513,-88.0778,6.159,26.46,1111122 
DISL,ioos:station:DISL:DISL:1,2008-07-03T23:00:00Z,30.2513,-88.0778,6.068,26.84,1111122 
DISL,ioos:station:DISL:DISL:1,2008-07-03T23:30:00Z,30.2513,-88.0778,5.967,26.94,1111122 
DISL,ioos:station:DISL:DISL:1,2008-07-04T00:00:00Z,30.2513,-88.0778,5.883,26.94,1111122 
DISL,ioos:station:DISL:DISL:1,2008-07-04T00:30:00Z,30.2513,-88.0778,5.766,26.79,1111122 
DISL,ioos:station:DISL:DISL:1,2008-07-04T01:00:00Z,30.2513,-88.0778,5.793,26.11,1111122 
DISL,ioos:station:DISL:DISL:1,2008-07-04T01:30:00Z,30.2513,-88.0778,5.596,25.67,1111122 
DISL,ioos:station:DISL:DISL:1,2008-07-04T02:00:00Z,30.2513,-88.0778,5.552,25.1,1111122 
DISL,ioos:station:DISL:DISL:1,2008-07-04T02:30:00Z,30.2513,-88.0778,5.435,24.41,1111122 
DISL,ioos:station:DISL:DISL:1,2008-07-04T03:00:00Z,30.2513,-88.0778,5.414,24.67,1111122 
DISL,ioos:station:DISL:DISL:1,2008-07-04T03:30:00Z,30.2513,-88.0778,5.429,23.93,1111122 
DISL,ioos:station:DISL:DISL:1,2008-07-04T04:00:00Z,30.2513,-88.0778,5.366,23.4,1111122 
DISL,ioos:station:DISL:DISL:1,2008-07-04T04:30:00Z,30.2513,-88.0778,5.43,22.72,1111122 
DISL,ioos:station:DISL:DISL:1,2008-07-04T05:00:00Z,30.2513,-88.0778,5.407,21.22,1111122 
DISL,ioos:station:DISL:DISL:1,2008-07-04T05:30:00Z,30.2513,-88.0778,5.429,21.54,1111122 
DISL,ioos:station:DISL:DISL:1,2008-07-04T06:00:00Z,30.2513,-88.0778,5.572,21.83,1111122 
DISL,ioos:station:DISL:DISL:1,2008-07-04T06:30:00Z,30.2513,-88.0778,5.562,22.75,1111122 
DISL,ioos:station:DISL:DISL:1,2008-07-04T07:00:00Z,30.2513,-88.0778,5.653,23.35,1111122 
DISL,ioos:station:DISL:DISL:1,2008-07-04T07:30:00Z,30.2513,-88.0778,5.668,22.97,1111122 
DISL,ioos:station:DISL:DISL:1,2008-07-04T08:00:00Z,30.2513,-88.0778,5.729,23.07,1111122 
DISL,ioos:station:DISL:DISL:1,2008-07-04T08:30:00Z,30.2513,-88.0778,5.8,23.58,1111122 
DISL,ioos:station:DISL:DISL:1,2008-07-04T09:00:00Z,30.2513,-88.0778,5.894,24.25,1111122 
DISL,ioos:station:DISL:DISL:1,2008-07-04T09:30:00Z,30.2513,-88.0778,5.994,24.76,1111122 
DISL,ioos:station:DISL:DISL:1,2008-07-04T10:00:00Z,30.2513,-88.0778,6.086,24.84,1111122 
DISL,ioos:station:DISL:DISL:1,2008-07-04T10:30:00Z,30.2513,-88.0778,5.992,24.47,1111122 
DISL,ioos:station:DISL:DISL:1,2008-07-04T11:00:00Z,30.2513,-88.0778,6.332,23.98,1111122 
DISL,ioos:station:DISL:DISL:1,2008-07-04T11:30:00Z,30.2513,-88.0778,6.467,23.84,1111122 
DISL,ioos:station:DISL:DISL:1,2008-07-04T12:00:00Z,30.2513,-88.0778,6.613,23.68,1111122 
DISL,ioos:station:DISL:DISL:1,2008-07-04T12:30:00Z,30.2513,-88.0778,6.725,23.55,1111122 
DISL,ioos:station:DISL:DISL:1,2008-07-04T13:00:00Z,30.2513,-88.0778,6.851,23.52,1111122 
DISL,ioos:station:DISL:DISL:1,2008-07-04T13:30:00Z,30.2513,-88.0778,6.996,23.47,1111122 
DISL,ioos:station:DISL:DISL:1,2008-07-04T14:00:00Z,30.2513,-88.0778,7.08,23.45,1111122 
DISL,ioos:station:DISL:DISL:1,2008-07-04T14:30:00Z,30.2513,-88.0778,7.16,23.47,1111122 
DISL,ioos:station:DISL:DISL:1,2008-07-04T15:00:00Z,30.2513,-88.0778,7.22,23.43,1111122 
DISL,ioos:station:DISL:DISL:1,2008-07-04T15:30:00Z,30.2513,-88.0778,7.3,23.35,1111122 
DISL,ioos:station:DISL:DISL:1,2008-07-04T16:00:00Z,30.2513,-88.0778,7.38,23.31,1111122 
DISL,ioos:station:DISL:DISL:1,2008-07-04T16:30:00Z,30.2513,-88.0778,7.4,23.28,1111122 
DISL,ioos:station:DISL:DISL:1,2008-07-04T17:00:00Z,30.2513,-88.0778,7.42,23.25,1111122 
DISL,ioos:station:DISL:DISL:1,2008-07-04T17:30:00Z,30.2513,-88.0778,7.44,23.23,1111122 
DISL,ioos:station:DISL:DISL:1,2008-07-04T18:00:00Z,30.2513,-88.0778,7.37,23.18,1111122 
DISL,ioos:station:DISL:DISL:1,2008-07-04T18:30:00Z,30.2513,-88.0778,7.32,23.1,1111122 
DISL,ioos:station:DISL:DISL:1,2008-07-04T19:00:00Z,30.2513,-88.0778,7.24,23.08,1111122 
DISL,ioos:station:DISL:DISL:1,2008-07-04T19:30:00Z,30.2513,-88.0778,7.17,23.05,1111122 
DISL,ioos:station:DISL:DISL:1,2008-07-04T20:00:00Z,30.2513,-88.0778,7.04,23.05,1111122 
DISL,ioos:station:DISL:DISL:1,2008-07-04T20:30:00Z,30.2513,-88.0778,6.914,23.06,1111122 
DISL,ioos:station:DISL:DISL:1,2008-07-04T21:00:00Z,30.2513,-88.0778,6.782,23.07,1111122 
DISL,ioos:station:DISL:DISL:1,2008-07-04T21:30:00Z,30.2513,-88.0778,6.663,23.07,1111122 
DISL,ioos:station:DISL:DISL:1,2008-07-04T22:00:00Z,30.2513,-88.0778,6.504,23.1,1111122 
DISL,ioos:station:DISL:DISL:1,2008-07-04T22:30:00Z,30.2513,-88.0778,6.387,23.11,1111122 
DISL,ioos:station:DISL:DISL:1,2008-07-04T23:00:00Z,30.2513,-88.0778,6.218,23.82,1111122 
DISL,ioos:station:DISL:DISL:1,2008-07-04T23:30:00Z,30.2513,-88.0778,6.153,24.78,1111122 
DISL,ioos:station:DISL:DISL:1,2008-07-05T00:00:00Z,30.2513,-88.0778,6.07,25.04,1111122 
DISL,ioos:station:DISL:DISL:1,2008-07-05T00:30:00Z,30.2513,-88.0778,6.006,25.41,1111122 
DISL,ioos:station:DISL:DISL:1,2008-07-05T01:00:00Z,30.2513,-88.0778,5.971,25.79,1111122 
DISL,ioos:station:DISL:DISL:1,2008-07-05T01:30:00Z,30.2513,-88.0778,5.887,26.09,1111122 
DISL,ioos:station:DISL:DISL:1,2008-07-05T02:00:00Z,30.2513,-88.0778,5.822,26.18,1111122 
DISL,ioos:station:DISL:DISL:1,2008-07-05T02:30:00Z,30.2513,-88.0778,5.746,26.21,1111122 
DISL,ioos:station:DISL:DISL:1,2008-07-05T03:00:00Z,30.2513,-88.0778,5.656,26.29,1111122 
DISL,ioos:station:DISL:DISL:1,2008-07-05T03:30:00Z,30.2513,-88.0778,5.609,26.27,1111122 
DISL,ioos:station:DISL:DISL:1,2008-07-05T04:00:00Z,30.2513,-88.0778,5.566,26.26,1111122 
DISL,ioos:station:DISL:DISL:1,2008-07-05T04:30:00Z,30.2513,-88.0778,5.564,26.2,1111122 
DISL,ioos:station:DISL:DISL:1,2008-07-05T05:00:00Z,30.2513,-88.0778,5.58,24.88,1111122 
DISL,ioos:station:DISL:DISL:1,2008-07-05T05:30:00Z,30.2513,-88.0778,5.64,24.12,1111122 
DISL,ioos:station:DISL:DISL:1,2008-07-05T06:00:00Z,30.2513,-88.0778,5.593,24.1,1111122 
DISL,ioos:station:DISL:DISL:1,2008-07-05T06:30:00Z,30.2513,-88.0778,5.607,25.22,1111122 
DISL,ioos:station:DISL:DISL:1,2008-07-05T07:00:00Z,30.2513,-88.0778,5.711,25.42,1111122 
DISL,ioos:station:DISL:DISL:1,2008-07-05T07:30:00Z,30.2513,-88.0778,5.687,25.51,1111122 
DISL,ioos:station:DISL:DISL:1,2008-07-05T08:00:00Z,30.2513,-88.0778,5.779,25.71,1111122 
DISL,ioos:station:DISL:DISL:1,2008-07-05T08:30:00Z,30.2513,-88.0778,5.874,25.73,1111122 
DISL,ioos:station:DISL:DISL:1,2008-07-05T09:00:00Z,30.2513,-88.0778,5.992,25.59,1111122 
DISL,ioos:station:DISL:DISL:1,2008-07-05T09:30:00Z,30.2513,-88.0778,6.01,25.46,1111122 
DISL,ioos:station:DISL:DISL:1,2008-07-05T10:00:00Z,30.2513,-88.0778,6.074,24.97,1111122 
DISL,ioos:station:DISL:DISL:1,2008-07-05T10:30:00Z,30.2513,-88.0778,6.148,24.48,1111122 
DISL,ioos:station:DISL:DISL:1,2008-07-05T11:00:00Z,30.2513,-88.0778,6.252,24.12,1111122 
DISL,ioos:station:DISL:DISL:1,2008-07-05T11:30:00Z,30.2513,-88.0778,6.323,23.99,1111122 
DISL,ioos:station:DISL:DISL:1,2008-07-05T12:00:00Z,30.2513,-88.0778,6.466,23.83,1111122 
DISL,ioos:station:DISL:DISL:1,2008-07-05T12:30:00Z,30.2513,-88.0778,6.565,23.81,1111122 
DISL,ioos:station:DISL:DISL:1,2008-07-05T13:00:00Z,30.2513,-88.0778,6.614,24.29,1111122 
DISL,ioos:station:DISL:DISL:1,2008-07-05T13:30:00Z,30.2513,-88.0778,6.701,24.08,1111122 
DISL,ioos:station:DISL:DISL:1,2008-07-05T14:00:00Z,30.2513,-88.0778,6.826,24.84,1111122 
DISL,ioos:station:DISL:DISL:1,2008-07-05T14:30:00Z,30.2513,-88.0778,6.929,24.56,1111122 
DISL,ioos:station:DISL:DISL:1,2008-07-05T15:00:00Z,30.2513,-88.0778,7.04,23.54,1111122 
DISL,ioos:station:DISL:DISL:1,2008-07-05T15:30:00Z,30.2513,-88.0778,7.06,24.29,1111122 
DISL,ioos:station:DISL:DISL:1,2008-07-05T16:00:00Z,30.2513,-88.0778,7.19,24.35,1111122 
DISL,ioos:station:DISL:DISL:1,2008-07-05T16:30:00Z,30.2513,-88.0778,7.18,24.4,1111122 
DISL,ioos:station:DISL:DISL:1,2008-07-05T17:00:00Z,30.2513,-88.0778,7.25,24.42,1111122 
DISL,ioos:station:DISL:DISL:1,2008-07-05T17:30:00Z,30.2513,-88.0778,7.3,24.51,1111122 
DISL,ioos:station:DISL:DISL:1,2008-07-05T18:00:00Z,30.2513,-88.0778,7.25,25.21,1111122 
DISL,ioos:station:DISL:DISL:1,2008-07-05T18:30:00Z,30.2513,-88.0778,7.25,23.52,1111122 
DISL,ioos:station:DISL:DISL:1,2008-07-05T19:00:00Z,30.2513,-88.0778,7.25,23.76,1111122 
DISL,ioos:station:DISL:DISL:1,2008-07-05T19:30:00Z,30.2513,-88.0778,7.15,23.88,1111122 
DISL,ioos:station:DISL:DISL:1,2008-07-05T20:00:00Z,30.2513,-88.0778,7.07,24.43,1111122 
DISL,ioos:station:DISL:DISL:1,2008-07-05T20:30:00Z,30.2513,-88.0778,6.984,23.65,1111122 
DISL,ioos:station:DISL:DISL:1,2008-07-05T21:00:00Z,30.2513,-88.0778,6.859,24.61,1111122 
DISL,ioos:station:DISL:DISL:1,2008-07-05T21:30:00Z,30.2513,-88.0778,6.835,24.0,1111122 
DISL,ioos:station:DISL:DISL:1,2008-07-05T22:00:00Z,30.2513,-88.0778,6.693,23.99,1111122 
DISL,ioos:station:DISL:DISL:1,2008-07-05T22:30:00Z,30.2513,-88.0778,6.603,24.48,1111122 
DISL,ioos:station:DISL:DISL:1,2008-07-05T23:00:00Z,30.2513,-88.0778,6.537,24.49,1111122 
DISL,ioos:station:DISL:DISL:1,2008-07-05T23:30:00Z,30.2513,-88.0778,6.605,25.99,1111122 
DISL,ioos:station:DISL:DISL:1,2008-07-06T00:00:00Z,30.2513,-88.0778,6.675,26.71,1111122 
DISL,ioos:station:DISL:DISL:1,2008-07-06T00:30:00Z,30.2513,-88.0778,6.346,24.97,1111122 
DISL,ioos:station:DISL:DISL:1,2008-07-06T01:00:00Z,30.2513,-88.0778,6.191,26.68,1111122 
DISL,ioos:station:DISL:DISL:1,2008-07-06T01:30:00Z,30.2513,-88.0778,6.197,27.3,1111122 
DISL,ioos:station:DISL:DISL:1,2008-07-06T02:00:00Z,30.2513,-88.0778,6.231,28.01,1111122 
DISL,ioos:station:DISL:DISL:1,2008-07-06T02:30:00Z,30.2513,-88.0778,5.951,28.68,1111122 
DISL,ioos:station:DISL:DISL:1,2008-07-06T03:00:00Z,30.2513,-88.0778,5.805,28.57,1111122 
DISL,ioos:station:DISL:DISL:1,2008-07-06T03:30:00Z,30.2513,-88.0778,5.688,28.76,1111122 
DISL,ioos:station:DISL:DISL:1,2008-07-06T04:00:00Z,30.2513,-88.0778,5.71,28.05,1111122 
DISL,ioos:station:DISL:DISL:1,2008-07-06T04:30:00Z,30.2513,-88.0778,5.729,27.11,1111122 
DISL,ioos:station:DISL:DISL:1,2008-07-06T05:00:00Z,30.2513,-88.0778,5.732,26.58,1111122 
DISL,ioos:station:DISL:DISL:1,2008-07-06T05:30:00Z,30.2513,-88.0778,5.734,26.23,1111122 
DISL,ioos:station:DISL:DISL:1,2008-07-06T06:00:00Z,30.2513,-88.0778,5.766,25.95,1111122 
DISL,ioos:station:DISL:DISL:1,2008-07-06T06:30:00Z,30.2513,-88.0778,5.697,26.05,1111122 
DISL,ioos:station:DISL:DISL:1,2008-07-06T07:00:00Z,30.2513,-88.0778,5.716,26.32,1111122 
DISL,ioos:station:DISL:DISL:1,2008-07-06T07:30:00Z,30.2513,-88.0778,5.799,26.29,1111122 
DISL,ioos:station:DISL:DISL:1,2008-07-06T08:00:00Z,30.2513,-88.0778,5.761,26.4,1111122 
DISL,ioos:station:DISL:DISL:1,2008-07-06T08:30:00Z,30.2513,-88.0778,5.841,26.23,1111122 
DISL,ioos:station:DISL:DISL:1,2008-07-06T09:00:00Z,30.2513,-88.0778,5.88,26.46,1111122 
DISL,ioos:station:DISL:DISL:1,2008-07-06T09:30:00Z,30.2513,-88.0778,5.994,26.77,1111122 
DISL,ioos:station:DISL:DISL:1,2008-07-06T10:00:00Z,30.2513,-88.0778,5.997,26.84,1111122 
DISL,ioos:station:DISL:DISL:1,2008-07-06T10:30:00Z,30.2513,-88.0778,6.086,26.98,1111122 
DISL,ioos:station:DISL:DISL:1,2008-07-06T11:00:00Z,30.2513,-88.0778,6.076,26.66,1111122 
DISL,ioos:station:DISL:DISL:1,2008-07-06T11:30:00Z,30.2513,-88.0778,6.163,26.37,1111122 
DISL,ioos:station:DISL:DISL:1,2008-07-06T12:00:00Z,30.2513,-88.0778,6.194,26.21,1111122 
DISL,ioos:station:DISL:DISL:1,2008-07-06T12:30:00Z,30.2513,-88.0778,6.329,26.1,1111122 
DISL,ioos:station:DISL:DISL:1,2008-07-06T13:00:00Z,30.2513,-88.0778,6.368,26.03,1111122 
DISL,ioos:station:DISL:DISL:1,2008-07-06T13:30:00Z,30.2513,-88.0778,6.533,26.04,1111122 
DISL,ioos:station:DISL:DISL:1,2008-07-06T14:00:00Z,30.2513,-88.0778,6.594,27.28,1111122 
DISL,ioos:station:DISL:DISL:1,2008-07-06T14:30:00Z,30.2513,-88.0778,6.677,26.54,1111122 